FW3111 Weather Reports


time (UTC)temp
F
wind
direction
speed
knots
gust
knots
rain 1hr
in
rain 24hr
in
rain mn
in
humidity
%
barometer
mb
20260507075513 63 206 5.2 9.6 0.00 0.00 0.00 100 1014.0
20260507075012 63 134 3.5 8.7 0.00 0.00 0.00 100 1014.1
20260507074511 64 146 5.2 8.7 0.00 0.00 0.00 100 1014.1
20260507074010 63 153 3.5 8.7 0.00 0.00 0.00 100 1014.2
20260507073511 64 166 2.6 7.8 0.00 0.00 0.00 100 1014.3
20260507073008 64 175 3.5 7.8 0.00 0.00 0.00 100 1014.3
20260507072508 64 178 4.3 7.8 0.00 0.00 0.00 100 1014.4
20260507072007 64 203 3.5 8.7 0.00 0.00 0.00 100 1014.4
20260507071510 64 184 4.3 8.7 0.00 0.00 0.00 100 1014.4
20260507071006 64 198 4.3 7.8 0.00 0.00 0.00 100 1014.3
20260507070506 64 210 3.5 7.8 0.00 0.00 0.00 100 1014.2
20260507070009 64 208 4.3 7.8 0.00 0.00 0.00 100 1014.2
20260507065505 64 184 4.3 8.7 0.00 0.00 0.00 100 1014.3
20260507065002 64 150 5.2 8.7 0.00 0.00 0.00 100 1014.5
20260507064501 64 188 3.5 9.6 0.00 0.00 0.00 100 1014.6
20260507064100 64 160 5.2 10.4 0.00 0.00 0.00 100 1014.7
20260507064002 64 147 6.1 10.4 0.00 0.00 0.00 100 1014.8
20260507063559 64 129 5.2 10.4 0.00 0.00 0.00 100 1015.0
20260507063100 64 186 3.5 9.6 0.00 0.00 0.00 100 1015.1
20260507062558 64 192 5.2 9.6 0.00 0.00 0.00 100 1015.2
20260507062057 64 161 4.3 8.7 0.00 0.00 0.00 100 1015.2
20260507061556 64 195 5.2 8.7 0.00 0.00 0.00 100 1015.2
20260507061054 64 194 4.3 7.0 0.00 0.00 0.00 100 1015.2
20260507060553 64 246 3.5 8.7 0.00 0.00 0.00 100 1015.2
20260507060055 64 173 3.5 8.7 0.00 0.00 0.00 100 1015.4
20260507055552 64 166 3.5 9.6 0.00 0.00 0.00 100 1015.3
20260507055051 64 196 5.2 10.4 0.00 0.00 0.00 100 1015.3
20260507054551 65 184 4.3 11.3 0.00 0.00 0.00 100 1015.4
20260507054049 65 189 3.5 11.3 0.00 0.00 0.00 100 1015.5
20260507053548 65 142 3.5 10.4 0.00 0.00 0.00 100 1015.6
20260507053047 65 164 3.5 9.6 0.00 0.00 0.00 100 1015.7
20260507052545 65 167 4.3 11.3 0.00 0.00 0.00 100 1015.7
20260507052045 65 154 4.3 11.3 0.00 0.00 0.00 100 1015.7
20260507051546 65 173 4.3 10.4 0.00 0.00 0.00 100 1015.8
20260507051042 65 155 3.5 10.4 0.00 0.00 0.00 100 1015.8
20260507050541 65 121 5.2 10.4 0.00 0.00 0.00 100 1015.8
20260507050040 65 126 3.5 7.8 0.00 0.00 0.00 100 1015.7
20260507045541 65 165 1.7 8.7 0.00 0.00 0.00 100 1015.7
20260507045039 65 196 7.0 8.7 0.00 0.00 0.00 100 1015.7
20260507044555 65 221 6.1 8.7 0.00 0.00 0.00 100 1015.7
20260507044039 65 198 5.2 9.6 0.00 0.00 0.00 100 1015.7
20260507043539 65 146 3.5 8.7 0.00 0.00 0.00 100 1015.7
20260507043041 65 198 4.3 9.6 0.00 0.00 0.00 100 1015.8
20260507042539 65 223 5.2 9.6 0.00 0.00 0.00 100 1015.8
20260507042038 65 199 4.3 9.6 0.00 0.00 0.00 100 1015.9
20260507041544 65 200 3.5 8.7 0.00 0.00 0.00 100 1016.0
20260507041037 65 182 3.5 9.6 0.00 0.00 0.00 100 1015.9
20260507040538 65 138 4.3 11.3 0.00 0.00 0.00 100 1015.8
20260507040042 65 169 6.1 12.2 0.00 0.00 0.00 100 1015.8
20260507035536 66 132 4.3 11.3 0.00 0.00 0.00 100 1015.8
20260507035036 66 126 5.2 11.3 0.00 0.00 0.00 100 1015.7
20260507034542 66 120 5.2 9.6 0.00 0.00 0.00 100 1015.7
20260507034037 66 152 4.3 8.7 0.00 0.00 0.00 100 1015.6
20260507033536 66 146 5.2 12.2 0.00 0.00 0.00 100 1015.7
20260507033045 66 171 4.3 12.2 0.00 0.00 0.00 100 1015.7
20260507032535 66 132 5.2 10.4 0.00 0.00 0.00 100 1015.6
20260507032040 66 148 3.5 8.7 0.00 0.00 0.00 100 1015.5
20260507031551 66 155 4.3 11.3 0.00 0.00 0.00 100 1015.4
20260507031035 66 183 4.3 12.2 0.00 0.00 0.00 100 1015.4
20260507030534 66 128 7.0 10.4 0.00 0.00 0.00 100 1015.3
20260507030042 66 132 4.3 7.8 0.00 0.00 0.00 100 1015.2
20260507025534 66 208 4.3 11.3 0.00 0.00 0.00 100 1015.1
20260507025036 66 197 6.1 11.3 0.00 0.00 0.00 100 1015.0
20260507024541 66 126 5.2 10.4 0.00 0.00 0.00 100 1015.2
20260507024035 66 182 3.5 9.6 0.00 0.00 0.00 100 1015.1
20260507023533 66 171 5.2 12.2 0.00 0.00 0.00 100 1015.1
20260507023033 66 213 6.1 12.2 0.00 0.00 0.00 100 1014.9
20260507022533 66 180 5.2 10.4 0.00 0.00 0.00 100 1014.9
20260507022033 66 140 5.2 11.3 0.00 0.00 0.00 100 1014.8
20260507021536 66 180 5.2 11.3 0.00 0.00 0.00 100 1014.8
20260507021034 66 161 7.0 13.9 0.00 0.00 0.00 100 1014.7
20260507020535 66 127 6.1 13.9 0.00 0.00 0.00 100 1014.7
20260507020034 66 182 5.2 14.8 0.00 0.00 0.00 100 1014.6
20260507015531 66 147 7.0 13.0 0.00 0.00 0.00 100 1014.5
20260507015033 66 155 7.0 13.9 0.00 0.00 0.00 100 1014.6
20260507014541 66 121 6.1 13.9 0.00 0.00 0.00 100 1014.5
20260507014030 66 125 7.0 11.3 0.00 0.00 0.00 100 1014.3
20260507013530 66 127 4.3 13.9 0.00 0.00 0.00 100 1014.1
20260507013036 66 183 4.3 13.9 0.00 0.00 0.00 100 1013.9
20260507012534 66 202 6.1 12.2 0.00 0.00 0.00 100 1014.2
20260507012030 66 115 4.3 10.4 0.00 0.00 0.00 100 1014.2
20260507011535 66 159 6.1 10.4 0.00 0.00 0.00 100 1014.1
20260507011031 66 209 5.2 13.0 0.00 0.00 0.00 100 1014.2
20260507010530 67 163 6.1 12.2 0.00 0.00 0.00 100 1014.1
20260507010038 67 174 7.0 12.2 0.00 0.00 0.00 100 1013.9
20260507005532 67 155 7.0 11.3 0.00 0.00 0.00 100 1013.9
20260507005034 67 205 7.0 11.3 0.00 0.00 0.00 100 1013.8
20260507004529 67 134 6.1 13.0 0.00 0.00 0.00 100 1013.9
20260507004030 67 145 5.2 10.4 0.00 0.00 0.00 100 1013.7
20260507003529 67 142 6.1 10.4 0.00 0.00 0.00 100 1013.6
20260507003028 67 194 4.3 10.4 0.00 0.00 0.00 100 1013.4
20260507002528 67 198 5.2 10.4 0.00 0.00 0.00 100 1013.2
20260507002030 67 201 6.1 10.4 0.00 0.00 0.00 100 1013.0
20260507001534 67 188 7.8 9.6 0.00 0.00 0.00 100 1012.9
20260507001028 67 190 5.2 10.4 0.00 0.00 0.00 100 1012.7
20260507000528 67 169 4.3 10.4 0.00 0.00 0.00 100 1012.5
20260507000028 67 161 6.1 10.4 0.00 0.00 0.00 100 1012.4
20260506235527 68 183 6.1 14.8 0.00 0.00 0.00 100 1012.5
20260506235027 68 162 7.0 14.8 0.00 0.00 0.00 100 1012.3
20260506234527 68 181 5.2 11.3 0.00 0.00 0.00 100 1012.2
20260506234029 68 210 5.2 14.8 0.00 0.00 0.00 100 1012.2
20260506233527 69 190 6.1 15.6 0.00 0.00 0.00 100 1012.1
20260506233026 69 145 7.0 15.6 0.00 0.00 0.00 100 1012.0
20260506232528 69 169 5.2 13.0 0.00 0.00 0.00 100 1011.9
20260506232026 69 142 7.0 13.0 0.00 0.00 0.00 100 1011.8
20260506231526 70 161 7.0 11.3 0.00 0.00 0.00 100 1011.7
20260506231026 70 181 4.3 10.4 0.00 0.00 0.00 100 1011.7
20260506230529 71 184 3.5 7.8 0.00 0.00 0.00 100 1011.5
20260506230025 71 164 4.3 14.8 0.00 0.00 0.00 100 1011.4
20260506225525 71 163 6.1 14.8 0.00 0.00 0.00 100 1011.2
20260506225027 72 123 7.0 13.9 0.00 0.00 0.00 100 1011.2
20260506224527 72 142 7.0 13.9 0.00 0.00 0.00 100 1011.2
20260506224025 72 147 6.1 13.9 0.00 0.00 0.00 100 1011.1
20260506223524 73 169 7.0 11.3 0.00 0.00 0.00 100 1011.1
20260506223024 74 207 5.2 12.2 0.00 0.00 0.00 100 1010.9
20260506222524 75 154 4.3 13.9 0.00 0.00 0.00 100 1010.7
20260506222024 75 126 4.3 11.3 0.00 0.00 0.00 100 1010.8
20260506221523 75 188 5.2 9.6 0.00 0.00 0.00 100 1010.9
20260506221023 75 255 6.1 12.2 0.00 0.00 0.00 100 1010.8
20260506220523 75 211 5.2 10.4 0.00 0.00 0.00 100 1010.8
20260506220023 76 227 3.5 8.7 0.00 0.00 0.00 100 1010.8
20260506215522 76 226 1.7 10.4 0.00 0.00 0.00 100 1010.8
20260506215023 76 191 3.5 11.3 0.00 0.00 0.00 100 1010.8
20260506214522 77 142 4.3 11.3 0.00 0.00 0.00 100 1011.0
20260506214025 76 154 3.5 8.7 0.00 0.00 0.00 100 1010.9
20260506213526 76 214 3.5 12.2 0.00 0.00 0.00 100 1011.0
20260506213023 76 184 7.0 12.2 0.00 0.00 0.00 100 1011.0
20260506212521 77 175 5.2 10.4 0.00 0.00 0.00 100 1011.0
20260506212023 77 222 4.3 8.7 0.00 0.00 0.00 100 1011.0
20260506211523 77 165 3.5 14.8 0.00 0.00 0.00 100 1010.9
20260506211021 77 159 4.3 15.6 0.00 0.00 0.00 100 1011.1
20260506210521 76 153 7.8 15.6 0.00 0.00 0.00 100 1010.9
20260506210024 77 157 7.8 15.6 0.00 0.00 0.00 100 1010.9
20260506205521 77 153 7.0 13.0 0.00 0.00 0.00 100 1011.1
20260506205018 77 138 5.2 13.0 0.00 0.00 0.00 100 1011.1
20260506204518 77 137 5.2 13.0 0.00 0.00 0.00 100 1011.2
20260506204017 76 110 5.2 12.2 0.00 0.00 0.00 100 1011.1
20260506203517 77 188 7.0 12.2 0.00 0.00 0.00 100 1011.3
20260506203016 78 154 7.0 10.4 0.00 0.00 0.00 100 1011.5
20260506202516 78 199 5.2 8.7 0.00 0.00 0.00 100 1011.5
20260506202017 78 126 4.3 12.2 0.00 0.00 0.00 100 1011.4
20260506201518 78 140 5.2 12.2 0.00 0.00 0.00 100 1011.5
20260506201016 78 230 4.3 13.0 0.00 0.00 0.00 100 1011.5
20260506200514 78 234 5.2 13.0 0.00 0.00 0.00 100 1011.6
20260506200015 78 154 4.3 12.2 0.00 0.00 0.00 100 1011.5
20260506195516 79 117 7.8 12.2 0.00 0.00 0.00 100 1011.6
20260506195013 80 231 3.5 8.7 0.00 0.00 0.00 100 1011.7
20260506194513 79 194 1.7 8.7 0.00 0.00 0.00 100 1011.8
20260506194018 78 131 2.6 9.6 0.00 0.00 0.00 100 1011.9
20260506193512 78 237 6.1 12.2 0.00 0.00 0.00 100 1012.0
20260506193013 77 251 3.5 12.2 0.00 0.00 0.00 100 1012.0
20260506192510 78 213 7.0 16.5 0.00 0.00 0.00 100 1012.2
20260506192011 78 105 9.6 16.5 0.00 0.00 0.00 100 1012.3
20260506191510 79 136 5.2 13.0 0.00 0.00 0.00 100 1012.3
20260506191009 79 103 7.0 12.2 0.00 0.00 0.00 100 1012.2
20260506190508 78 188 6.1 13.0 0.00 0.00 0.00 100 1012.4
20260506190008 78 216 5.2 13.0 0.00 0.00 0.00 100 1012.4
20260506185510 78 132 7.8 11.3 0.00 0.00 0.00 100 1012.6
20260506185007 78 130 4.3 8.7 0.00 0.00 0.00 100 1012.6
20260506184507 78 142 4.3 11.3 0.00 0.00 0.00 100 1012.7
20260506184009 79 143 6.1 11.3 0.00 0.00 0.00 100 1012.8
20260506183506 80 138 6.1 9.6 0.00 0.00 0.00 100 1012.9
20260506183006 80 142 3.5 9.6 0.00 0.00 0.00 100 1012.9
20260506182502 79 102 5.2 9.6 0.00 0.00 0.00 100 1012.8
20260506182001 78 186 4.3 9.6 0.00 0.00 0.00 100 1012.9
20260506181604 77 130 3.5 7.8 0.00 0.00 0.00 100 1012.9
20260506181059 77 134 3.5 7.0 0.00 0.00 0.00 100 1013.1
20260506180559 76 176 2.6 6.1 0.00 0.00 0.00 100 1013.2
20260506180100 77 194 1.7 6.1 0.00 0.00 0.00 100 1013.3
20260506175557 78 208 0.9 10.4 0.00 0.00 0.00 100 1013.3
20260506175057 77 207 4.3 10.4 0.00 0.00 0.00 100 1013.4
20260506174558 77 247 5.2 9.6 0.00 0.00 0.00 100 1013.3
20260506174056 77 263 3.5 9.6 0.00 0.00 0.00 100 1013.5
20260506173556 76 277 1.7 6.1 0.00 0.00 0.00 100 1013.5
20260506173124 76 203 3.5 5.2 0.00 0.00 0.00 100 1013.6
20260506172555 76 252 1.7 5.2 0.00 0.00 0.00 100 1013.6
20260506172100 76 244 1.7 6.1 0.00 0.00 0.00 100 1013.7
20260506171602 77 242 3.5 8.7 0.00 0.00 0.00 100 1013.7
20260506171055 77 236 2.6 6.1 0.00 0.00 0.00 100 1013.8
20260506170552 77 220 1.7 7.0 0.00 0.00 0.00 100 1013.8
20260506170052 76 238 1.7 8.7 0.00 0.00 0.00 100 1013.9
20260506165552 76 273 3.5 7.8 0.00 0.00 0.00 100 1014.0
20260506165053 76 226 1.7 9.6 0.00 0.00 0.00 100 1014.1
20260506164557 76 255 4.3 9.6 0.00 0.00 0.00 100 1014.1
20260506164051 77 219 4.3 7.8 0.00 0.00 0.00 100 1014.2
20260506163549 76 282 1.7 6.1 0.00 0.00 0.00 100 1014.3
20260506163058 76 210 0.0 7.0 0.00 0.00 0.00 100 1014.4
20260506162548 76 210 2.6 7.0 0.00 0.00 0.00 100 1014.5
20260506162049 75 246 3.5 6.1 0.00 0.00 0.00 100 1014.5
20260506161558 74 198 2.6 8.7 0.00 0.00 0.00 100 1014.5
20260506161046 74 261 6.1 8.7 0.00 0.00 0.00 100 1014.5
20260506160545 74 270 4.3 8.7 0.00 0.00 0.00 100 1014.6
20260506160046 74 285 3.5 7.0 0.00 0.00 0.00 100 1014.6
20260506155542 73 215 1.7 6.1 0.00 0.00 0.00 100 1014.7
20260506155043 72 190 2.6 6.1 0.00 0.00 0.00 100 1014.7
20260506154548 72 228 3.5 5.2 0.00 0.00 0.00 100 1014.8
20260506154042 72 296 1.7 5.2 0.00 0.00 0.00 100 1014.9
20260506153543 72 269 1.7 7.0 0.00 0.00 0.00 100 1014.9
20260506153046 73 277 5.2 7.0 0.00 0.00 0.00 100 1014.9
20260506152542 73 260 2.6 6.1 0.00 0.00 0.00 100 1015.0
20260506152040 73 273 0.9 4.3 0.00 0.00 0.00 100 1015.0
20260506151540 72 238 0.9 5.2 0.00 0.00 0.00 100 1015.1
20260506151041 72 271 2.6 5.2 0.00 0.00 0.00 100 1015.1
20260506150544 72 262 0.9 5.2 0.00 0.00 0.00 100 1015.2
20260506150042 72 269 1.7 5.2 0.00 0.00 0.00 100 1015.2
20260506145538 73 268 2.6 6.1 0.00 0.00 0.00 100 1015.2
20260506145038 73 271 3.5 6.1 0.00 0.00 0.00 100 1015.3
20260506144541 72 271 0.9 3.5 0.00 0.00 0.00 100 1015.4
20260506144035 71 238 0.0 1.7 0.00 0.00 0.00 100 1015.5
20260506143534 71 217 0.0 2.6 0.00 0.00 0.00 100 1015.4
20260506143036 70 215 0.9 4.3 0.00 0.00 0.00 100 1015.4
20260506142530 70 279 0.9 4.3 0.00 0.00 0.00 100 1015.5
20260506142030 70 320 0.0 0.0 0.00 0.00 0.00 100 1015.4
20260506141532 70 324 0.0 0.0 0.00 0.00 0.00 100 1015.4
20260506141029 70 325 0.0 0.0 0.00 0.00 0.00 100 1015.4
20260506140529 69 341 0.0 0.0 0.00 0.00 0.00 100 1015.4
20260506140027 69 27 0.0 0.0 0.00 0.00 0.00 100 1015.4
20260506135527 68 36 0.0 2.6 0.00 0.00 0.00 100 1015.4
20260506135025 68 36 0.9 2.6 0.00 0.00 0.00 100 1015.3
20260506134524 68 63 0.0 2.6 0.00 0.00 0.00 100 1015.3
20260506134023 67 63 0.9 2.6 0.00 0.00 0.00 100 1015.2
20260506133523 67 63 0.0 4.3 0.00 0.00 0.00 100 1015.2
20260506133125 67 63 0.0 4.3 0.00 0.00 0.00 100 1015.1
20260506132526 67 61 0.9 3.5 0.00 0.00 0.00 100 1015.1
20260506132020 66 58 0.0 0.0 0.00 0.00 0.00 100 1015.1
20260506131529 66 63 0.0 0.0 0.00 0.00 0.00 100 1015.1
20260506131018 65 63 0.0 0.0 0.00 0.00 0.00 100 1015.1
20260506130517 65 63 0.0 0.0 0.00 0.00 0.00 100 1015.2
20260506130017 65 63 0.0 0.0 0.00 0.00 0.00 100 1015.1
20260506125519 65 55 0.0 0.0 0.00 0.00 0.00 100 1015.2
20260506125019 64 54 0.0 0.0 0.00 0.00 0.00 100 1015.1
20260506124516 64 54 0.0 0.0 0.00 0.00 0.00 100 1015.1
20260506124014 64 56 0.0 0.0 0.00 0.00 0.00 100 1015.1
20260506123513 63 57 0.0 0.0 0.00 0.00 0.00 100 1015.1
20260506123013 63 56 0.0 0.0 0.00 0.00 0.00 100 1015.2
20260506122512 63 55 0.0 0.0 0.00 0.00 0.00 100 1015.0
20260506122012 63 54 0.0 0.0 0.00 0.00 0.00 100 1015.0
20260506121512 63 53 0.0 0.0 0.00 0.00 0.00 100 1014.9
20260506121011 63 53 0.0 0.0 0.00 0.00 0.00 100 1015.0
20260506120511 63 54 0.0 0.0 0.00 0.00 0.00 100 1014.9
20260506120014 62 40 0.0 0.0 0.00 0.00 0.00 100 1014.9
20260506115511 62 39 0.0 0.0 0.00 0.00 0.00 100 1014.8
20260506115009 62 42 0.0 0.0 0.00 0.00 0.00 100 1014.7
20260506114508 62 42 0.0 0.0 0.00 0.00 0.00 100 1014.7
20260506114005 62 42 0.0 0.0 0.00 0.00 0.00 100 1014.6
20260506113505 62 42 0.0 0.0 0.00 0.00 0.00 100 1014.6
20260506113006 63 42 0.0 0.0 0.00 0.00 0.00 100 1014.5
20260506112504 63 42 0.0 0.0 0.00 0.00 0.00 100 1014.6
20260506112003 63 42 0.0 0.0 0.00 0.00 0.00 100 1014.6
20260506111504 63 31 0.0 0.0 0.00 0.00 0.00 100 1014.5
20260506111004 63 31 0.0 0.0 0.00 0.00 0.00 100 1014.5
20260506110504 63 31 0.0 0.0 0.00 0.00 0.00 100 1014.4
20260506110003 63 31 0.0 0.0 0.00 0.00 0.00 100 1014.4
20260506105503 63 31 0.0 0.0 0.00 0.00 0.00 100 1014.3
20260506105004 63 31 0.0 0.0 0.00 0.00 0.00 100 1014.2
20260506104502 63 31 0.0 0.0 0.00 0.00 0.00 100 1014.2
20260506104002 63 31 0.0 0.0 0.00 0.00 0.00 100 1014.2
20260506103502 63 31 0.0 0.0 0.00 0.00 0.00 100 1014.1
20260506103002 63 30 0.0 0.0 0.00 0.00 0.00 100 1014.1
20260506102600 63 30 0.0 0.0 0.00 0.00 0.00 100 1014.1
20260506102502 63 30 0.0 0.0 0.00 0.00 0.00 100 1014.0
20260506102100 64 30 0.0 0.0 0.00 0.00 0.00 100 1014.0
20260506101617 64 30 0.0 0.0 0.00 0.00 0.00 100 1013.9
20260506101059 64 29 0.0 0.0 0.00 0.00 0.00 100 1013.9
20260506100559 64 28 0.0 0.0 0.00 0.00 0.00 100 1013.8
20260506100119 64 28 0.0 0.0 0.00 0.00 0.00 100 1013.7
20260506095603 64 28 0.0 0.0 0.00 0.00 0.00 100 1013.7
20260506095101 64 28 0.0 0.0 0.00 0.00 0.00 100 1013.7
20260506094558 64 28 0.0 0.0 0.00 0.00 0.00 100 1013.7
20260506094057 64 65 0.0 0.0 0.00 0.00 0.00 100 1013.7
20260506093557 64 65 0.0 0.0 0.00 0.00 0.00 100 1013.7
20260506093057 64 65 0.0 0.0 0.00 0.00 0.00 100 1013.7
20260506092557 64 65 0.0 0.0 0.00 0.00 0.00 100 1013.6
20260506092056 64 65 0.0 0.0 0.00 0.00 0.00 100 1013.8
20260506091556 64 65 0.0 0.0 0.00 0.00 0.00 100 1013.8
20260506091054 64 65 0.0 0.0 0.00 0.00 0.00 100 1013.9
20260506090555 64 65 0.0 0.0 0.00 0.00 0.00 100 1013.9
20260506090054 64 65 0.0 0.0 0.00 0.00 0.00 100 1014.1
20260506085553 64 65 0.0 0.0 0.00 0.00 0.00 100 1014.1
20260506085053 64 65 0.0 0.0 0.00 0.00 0.00 100 1014.1
20260506084619 64 65 0.0 0.0 0.00 0.00 0.00 100 1014.3
20260506084052 64 65 0.0 0.0 0.00 0.00 0.00 100 1014.3
20260506083552 64 65 0.0 0.0 0.00 0.00 0.00 100 1014.4
20260506083051 64 65 0.0 0.0 0.00 0.00 0.00 100 1014.3
20260506082550 64 65 0.0 0.0 0.00 0.00 0.00 100 1014.3
20260506082049 64 65 0.0 0.0 0.00 0.00 0.00 100 1014.5
20260506081554 64 67 0.0 0.0 0.00 0.00 0.00 100 1014.5
20260506081048 64 69 0.0 0.0 0.00 0.00 0.00 100 1014.5
20260506080548 64 69 0.0 0.0 0.00 0.00 0.00 100 1014.5